User: anonymous   Login
Location: Elk Forest
(39.5314°N, 75.8738°W)
Time: 13:31:55
(UTC-05:00)
Language:

Resurs 01 Rocket - Orbit

View from above orbital plane
View from above orbital plane
View from above satellite
View from above satellite

Ground track
Ground track

The orbit data is extracted from the following two-line orbital elements,

1 23343U 94074B   14355.57125821  .00000892  00000-0  13622-3 0  2010
2 23343 098.2243 002.8360 0008400 103.5224 007.4630 14.76339801 82746
Epoch (UTC): 21 December 2014 13:42:36
Eccentricity: 0.0008400
inclination: 98.2243°
perigee height: 635 km
apogee height: 647 km
right ascension of ascending node: 2.8360°
argument of perigee: 103.5224°
revolutions per day: 14.76339801
mean anomaly at epoch: 7.4630°
orbit number at epoch: 8274

The dashed part of the orbit path shows where the satellite is in the earth's shadow,  

DLR